Millinocket, ME

7:55 PM EDT on August 31, 2016 (GMT -0400)
Millinocket Municipal

Weather History for KMLT - January, 2014

Change the Weather History Date:

Monday, January 20, 2014

  Actual Average Record
Temperature  
Mean Temperature 14 °F 13 °F  
Max Temperature 26 °F 23 °F 54 °F (1996)
Min Temperature 1 °F 3 °F -35 °F (1994)
Degree Days  
Heating Degree Days 51 52  
Month to date heating degree days 900 1014  
Since 1 July heating degree days 4056 4179  
Cooling Degree Days 0 0  
Month to date cooling degree days 0 0  
Year to date cooling degree days 0 0  
Moisture  
Dew Point 12 °F    
Average Humidity 72    
Maximum Humidity 88    
Minimum Humidity 55    
Precipitation  
Precipitation T in 0.07 in 1.11 in (1947)
Month to date precipitation 3.25 2.01  
Year to date precipitation 3.25 2.01  
Sea Level Pressure  
Sea Level Pressure 29.50 in    
Wind  
Wind Speed 10 mph (WNW)    
Max Wind Speed 20 mph    
Max Gust Speed 29 mph    
Visibility 7 miles    
Events Snow    
T = Trace of Precipitation, MM = Missing Value Source: NWS Daily Summary

Daily Weather History Graph

Daily Weather History Graph

Search for Another Location

Airport or City:

Trip Planner

Search our weather history database for the weather conditions in past years. The results will help you decide how hot, cold, wet, or windy it might be!

Date:

Astronomy

Jan. 20, 2014 Rise Set
Actual Time 7:08 AM EST 4:23 PM EST
Civil Twilight 6:35 AM EST 4:56 PM EST
Nautical Twilight 5:58 AM EST 5:33 PM EST
Astronomical Twilight 5:23 AM EST 6:08 PM EST
Moon 9:11 PM EST (1/20) 8:51 AM EST (1/20)
Length of Visible Light 10h 21m
Length of Day
9h 15m
Waning Gibbous, 83% of the Moon is Illuminated
Jan 20
Waning Gibbous
Jan 24
Last Quarter
Jan 30
New
Feb 6
First Quarter
Feb 14
Full

Hourly Weather History & Observations

Time (EST) Temp. Windchill Dew Point Humidity Pressure Visibility Wind Dir Wind Speed Gust Speed Precip Events Conditions
12:53 AM 25.0 °F 20.7 °F 19.0 °F 78% 29.36 in 10.0 mi Variable 3.5 mph - N/A   Overcast
1:53 AM 24.1 °F 18.2 °F 19.0 °F 81% 29.37 in 6.0 mi Variable 4.6 mph - 0.00 in Snow Light Snow
2:36 AM 25.0 °F 17.1 °F 19.9 °F 81% 29.36 in 1.8 mi Variable 6.9 mph - 0.00 in Snow Light Snow
2:44 AM 25.0 °F 18.1 °F 21.0 °F 85% 29.36 in 2.0 mi Variable 5.8 mph - 0.00 in Snow Light Snow
2:49 AM 24.8 °F 20.5 °F 21.2 °F 86% 29.36 in 1.2 mi Variable 3.5 mph - 0.00 in Snow Light Snow
2:53 AM 25.0 °F - 21.0 °F 85% 29.39 in 1.5 mi North - - 0.00 in Snow Light Snow
2:56 AM 25.0 °F 18.1 °F 19.9 °F 81% 29.36 in 2.0 mi Variable 5.8 mph - 0.00 in Snow Light Snow
3:04 AM 24.1 °F 18.2 °F 19.9 °F 84% 29.36 in 5.0 mi Variable 4.6 mph - 0.00 in Snow Light Snow
3:53 AM 25.0 °F 20.7 °F 21.0 °F 85% 29.41 in 10.0 mi Variable 3.5 mph - 0.00 in   Overcast
4:30 AM 25.0 °F 18.1 °F 21.0 °F 85% 29.38 in 2.5 mi Variable 5.8 mph - 0.00 in Snow Light Snow
4:38 AM 25.0 °F 17.1 °F 21.0 °F 85% 29.38 in 4.0 mi Variable 6.9 mph - 0.00 in Snow Light Snow
4:53 AM 26.1 °F 20.5 °F 21.0 °F 81% 29.42 in 2.5 mi Variable 4.6 mph 17.3 mph 0.00 in Snow Light Snow
5:21 AM 26.1 °F 21.9 °F 21.0 °F 81% 29.41 in 3.0 mi Variable 3.5 mph - 0.00 in Snow Light Snow
5:34 AM 26.1 °F 19.4 °F 21.0 °F 81% 29.42 in 2.5 mi WNW 5.8 mph - 0.00 in Snow Light Snow
5:53 AM 26.1 °F 18.4 °F 21.0 °F 81% 29.46 in 2.5 mi WSW 6.9 mph - 0.00 in Snow Light Snow
6:00 AM 26.1 °F 20.5 °F 21.0 °F 81% 29.44 in 6.0 mi West 4.6 mph - 0.00 in Snow Light Snow
6:14 AM 26.1 °F 16.8 °F 17.1 °F 69% 29.44 in 10.0 mi West 9.2 mph 18.4 mph 0.00 in   Overcast
6:53 AM 24.1 °F 15.2 °F 16.0 °F 71% 29.49 in 10.0 mi West 8.1 mph - 0.00 in   Overcast
7:53 AM 21.0 °F 14.6 °F 12.0 °F 68% 29.50 in 10.0 mi West 4.6 mph - N/A   Overcast
8:53 AM 21.0 °F 10.6 °F 10.9 °F 65% 29.52 in 10.0 mi WNW 9.2 mph 17.3 mph N/A   Overcast
9:53 AM 21.0 °F 9.9 °F 10.9 °F 65% 29.52 in 10.0 mi NW 10.4 mph - N/A   Overcast
10:53 AM 21.0 °F 9.3 °F 10.9 °F 65% 29.52 in 10.0 mi West 11.5 mph 21.9 mph 0.00 in   Overcast
11:53 AM 21.0 °F 9.3 °F 9.0 °F 60% 29.51 in 10.0 mi WNW 11.5 mph 17.3 mph 0.00 in   Overcast
12:53 PM 21.0 °F 9.3 °F 10.0 °F 63% 29.51 in 10.0 mi NW 11.5 mph - N/A   Overcast
1:53 PM 19.9 °F 6.2 °F 8.1 °F 60% 29.52 in 10.0 mi NW 15.0 mph - N/A   Overcast
2:53 PM 19.9 °F 6.7 °F 6.1 °F 55% 29.53 in 10.0 mi NW 13.8 mph - N/A   Overcast
3:53 PM 18.0 °F 4.2 °F 5.0 °F 57% 29.56 in 10.0 mi NW 13.8 mph - N/A   Overcast
4:53 PM 16.0 °F 0.6 °F 5.0 °F 62% 29.60 in 10.0 mi NW 16.1 mph 25.3 mph N/A   Overcast
5:53 PM 14.0 °F 2.9 °F 1.9 °F 59% 29.65 in 10.0 mi NW 8.1 mph - N/A   Mostly Cloudy
6:53 PM 10.9 °F -5.4 °F -2.9 °F 54% 29.68 in 10.0 mi NW 15.0 mph 24.2 mph N/A   Scattered Clouds
7:53 PM 9.0 °F 2.4 °F -4.0 °F 56% 29.72 in 10.0 mi WNW 3.5 mph 16.1 mph N/A   Scattered Clouds
8:53 PM 7.0 °F -4.5 °F -7.1 °F 53% 29.75 in 10.0 mi Variable 6.9 mph - N/A   Clear
9:53 PM 3.0 °F -16.1 °F -8.0 °F 60% 29.77 in 10.0 mi WNW 16.1 mph 25.3 mph N/A   Clear
10:53 PM 1.9 °F -15.5 °F -11.0 °F 55% 29.81 in 10.0 mi West 12.7 mph 24.2 mph 0.00 in   Clear
11:53 PM 1.0 °F -17.3 °F -11.9 °F 55% 29.82 in 10.0 mi WNW 13.8 mph 25.3 mph N/A   Clear